Volver al catálogo

COSMOS 2251 DEB

ActivoLEO
NORAD 34061·DEBRIS·🇷🇺 Russia

Lanzado Jun 16, 1993 desde Plesetsk Cosmodrome

Loading…

Próximos Pases (próximas 24 horas)

TLE

ActualizadoSource: Space-Track

Época: Sep 14, 2026, 07:06 UTC

1 34061U 93036JY  26257.29607845  .00000484  00000-0  15896-3 0  9996
2 34061  74.0376 113.8129 0019861 128.9284 354.3569 14.40825179921487

Sigue COSMOS 2251 DEB en tiempo real con AllMySat

Download on the App Store